Follow iAlert.com on twitter @ialertcom
Search For Active Alerts in Your Area  
  Hi Guest:  [ Sign-up / Services ] [ Login ]

Current weather by "City, St" or "zip code"  
 

Advertise Here

Current Conditions: Natchitoches, Natchitoches Regional Airport, LA

Mostly Cloudy


75.0 F

Last Updated on Jun 18 2018, 7:55 am CDT
Humidity: 90%
Wind Speed: SE 5.8 mph
Barometer 30.05 in
Dewpoint: 71.6 F
Visibility: 10.00 mi
Precip: --
Heat Index: NA
Wind Chill: NA
Current conditions at:

Natchitoches, Natchitoches Regional Airport, LA (KIER)

Lat: 31.73 Lon: 93.099

Local Radar Image active severe weather and emergency alerts image image weather storm and storm spotter reports image weather observation monitoring service image
Local
Radar
Active
Alerts
Storm Reports Obs
Monitoring

iAlert Weather and Emergency Alert Notification Services:


ialert severe weather and emergency alerts by text message and email ialert daily weather forecast by email and text message service ialert real-time weather-observation monitoring and alert notification service ialert storm report monitoring alert notification

Observation History for Natchitoches, Natchitoches Regional Airport, LA


Time Wind
(mph)
Vis
(mi)
Weather Precip (in) Temperature (F) Relative
Humidity
Wind
Chill
(°F)
Heat
Index
(°F)
Pressure
Air Dwpt altimeter
(in)
sea level
(mb)
7:55 am CDT SE 5.8 10.00 Mostly Cloudy -- 75.0 71.6 90% NA NA 30.05 M
6:55 am CDT N 0.0 10.00 Fair -- 72.0 69.8 93% NA NA 30.04 M
5:55 am CDT E 4.6 10.00 Fair -- 71.0 69.3 94% NA NA 30.04 M
4:55 am CDT N 0.0 10.00 Partly Cloudy -- 71.0 69.3 93% NA NA 30.02 M
3:55 am CDT E 3.5 10.00 Mostly Cloudy -- 73.0 69.8 91% NA NA 30.02 M
2:55 am CDT SE 4.6 10.00 Fair -- 73.0 69.8 90% NA NA 30.02 M
2:35 am CDT SE 4.6 10.00 Fair -- 73.0 69.8 89% NA NA 30.02 M
1:55 am CDT SE 3.5 10.00 Fair -- 73.0 69.8 89% NA NA 30.03 M
12:55 am CDT SE 4.6 10.00 Fair -- 74.0 70.7 90% NA NA 30.04 M
11:55 pm CDT SE 5.8 10.00 Fair -- 75.0 69.3 82% NA NA 30.05 M
10:55 pm CDT SE 9.2 G 16.1 10.00 Fair -- 76.0 69.8 80% NA NA 30.05 M
9:50 pm CDT SE 8.1 10.00 Fair -- 77.0 70.7 81% NA NA 30.04 M
8:55 pm CDT SE 9.2 10.00 Partly Cloudy -- 78.0 70.3 77% NA NA 30.03 M
7:55 pm CDT S 17.3 G 24.2 10.00 Mostly Cloudy -- 82.0 72.9 75% NA 88 30.02 M
6:55 pm CDT SE 9.2 10.00 Overcast -- 83.0 73.2 71% NA 89 29.99 M
5:55 pm CDT SE 8.1 10.00 Partly Cloudy 00.08 82.0 75.0 81% NA 89 29.99 M
4:55 pm CDT SE 13.8 G 18.4 10.00 Partly Cloudy -- 89.0 72.9 59% NA 97 29.99 M
3:55 pm CDT S 10.4 10.00 Partly Cloudy -- 89.0 73.4 61% NA 98 30.00 M
3:35 pm CDT SE 11.5 G 17.3 10.00 Mostly Cloudy -- 87.0 73.2 65% NA 95 30.00 M
2:55 pm CDT SE 13.8 G 17.3 10.00 Overcast -- 84.0 71.8 68% NA 90 30.01 M
1:55 pm CDT SE 13.8 G 18.4 10.00 Mostly Cloudy -- 91.0 73.2 56% NA 100 29.99 M
12:55 pm CDT SE 15.0 G 20.7 10.00 Partly Cloudy -- 90.0 73.6 58% NA 99 30.01 M
11:55 am CDT SE 10.4 G 17.3 10.00 Mostly Cloudy -- 88.0 74.5 64% NA 97 30.03 M
10:55 am CDT SE 9.2 10.00 Mostly Cloudy -- 87.0 74.7 67% NA 96 30.03 M

Regional Weather Observation


Ft. Polk - Peason Ridge, LA (KAQV)

Partly Cloudy
70.0 F

Barksdale Air Force Base, LA (KBAD)

Fair
71.0 F

Shreveport, Shreveport Regional Airport, LA (KSHV)

A Few Clouds
78.0 F

Ft. Polk/Self Strip, LA (KDNK)

Light Rain
66.0 F

Minden Airport, LA (KMNE)

Fair
77.0 F

Fort Polk, Polk AAF Ft Polk, LA (KPOE)

Mostly Cloudy
72.0 F

Advertise Here